[[{"header":{"parameterUnit":"m.s-1","parameterCategory":1,"la1":30.2991,"la2":30.254,"lo1":-89.0895,"lo2":-89.0444,"dy":0.0017,"dx":0.0017,"nx":28,"ny":28,"refTime":"2026-02-10T03:00:00:Z","depth":0,"parameterNumber":2,"parameterNumberName":"U-component_of_WINDS"},"data":[0,0,0,0,0,0,0,0,0,0,0,0,0,0,0,0,0,0,0,0,0,0,0,0,0,0,0,0,0,0,0,0,0,0,0,0,0,0,0,0,0,0,0,0,0,0,0,0,0,0,0,0,0,0,0,0,0,0,-1.1948,-1.1948,0,-1.1942,-1.1942,-1.1942,-1.1897,-1.1896,-1.1895,-1.1894,-1.1888,-1.1889,-1.189,0,0,0,0,0,0,0,0,0,0,0,0,0,-1.1923,-1.1924,-1.1948,-1.1948,-1.1948,-1.1942,-1.1942,-1.1942,-1.1897,-1.1896,-1.1895,-1.1893,-1.1888,-1.1889,-1.189,0,0,0,0,0,0,0,0,0,0,0,0,0,-1.1927,-1.1924,-1.1948,-1.1925,-1.1923,-1.1942,-1.1942,-1.1942,-1.1898,-1.1896,-1.1894,-1.1893,-1.1887,-1.1889,-1.189,-1.1931,0,0,-1.1894,-1.1895,0,0,0,0,0,0,0,0,-1.1927,-1.1928,-1.1929,-1.1927,-1.1924,-1.1919,-1.1931,-1.1938,-1.1898,-1.1907,-1.1894,-1.1892,-1.19,-1.19,-1.1902,-1.1931,-1.193,-1.1894,-1.1895,-1.1895,-1.1896,0,0,0,0,0,0,0,-1.1927,-1.1928,-1.1946,-1.1929,-1.1926,-1.1916,-1.1914,-1.1932,-1.1913,-1.1906,-1.1903,-1.1903,-1.1898,-1.1901,-1.1902,-1.193,-1.1894,-1.1895,-1.1896,-1.1897,-1.1993,-1.1995,0,0,0,0,0,0,-1.193,-1.1928,-1.1946,-1.1946,-1.1922,-1.1917,-1.1916,-1.1922,-1.1912,-1.1909,-1.1904,-1.1901,-1.19,-1.19,-1.1901,-1.1949,-1.1895,-1.1897,-1.1897,-1.1991,-1.1994,-1.1995,0,0,0,0,0,0,-1.1929,-1.1932,-1.1946,-1.1936,-1.1937,-1.1919,-1.1927,-1.1923,-1.1926,-1.1911,-1.1907,-1.1911,-1.1898,-1.19,-1.1924,-1.1949,-1.1897,-1.1898,-1.1989,-1.1992,-1.1994,-1.2045,0,0,0,0,0,0,-1.1929,-1.1932,-1.1947,-1.1937,-1.1938,-1.1969,-1.1928,-1.1924,-1.1928,-1.1923,-1.1916,-1.1913,-1.1897,-1.1922,-1.1925,-1.1949,-1.1899,-1.1987,-1.199,-1.1994,-1.2041,-1.2049,-1.2056,0,0,0,0,0,-1.1928,-1.1961,-1.1948,-1.195,-1.1956,-1.197,-1.1971,-1.1952,-1.193,-1.1945,-1.1936,-1.1913,-1.1945,-1.1925,-1.1928,-1.1953,-1.1985,-1.1989,-1.1993,-1.2038,-1.2048,-1.2056,0,0,0,0,0,0,-1.1974,-1.1959,-1.1944,-1.1975,-1.1974,-1.1963,-1.1981,-1.1962,-1.1968,-1.1963,-1.1939,-1.1938,-1.1967,-1.1962,-1.194,-1.1993,-1.1962,-1.1966,-1.1995,-1.2004,-1.2011,-1.2012,-1.1901,0,0,0,0,0,-1.1988,-1.2001,-1.1987,-1.2016,-1.2016,-1.1999,-1.2004,-1.199,-1.1988,-1.1987,-1.198,-1.1979,-1.1989,-1.1996,-1.2004,-1.2041,-1.2039,-1.2059,-1.2067,-1.2073,-1.2077,-1.2097,-1.2106,-1.2009,-1.2009,-1.2009,0,0,-1.2017,-1.201,-1.202,-1.2025,-1.2022,-1.2036,-1.1999,-1.2015,-1.2025,-1.199,-1.2013,-1.2007,-1.2005,-1.2036,-1.2049,-1.2033,-1.2104,-1.2078,-1.2083,-1.2084,-1.2102,-1.2112,-1.212,-1.2011,-1.2011,-1.201,0,0,-1.2076,-1.2072,-1.2096,-1.2095,-1.2092,-1.208,-1.2086,-1.2078,-1.2073,-1.2095,-1.2069,-1.2081,-1.2099,-1.2099,-1.2101,-1.2162,-1.2142,-1.2165,-1.2204,-1.2224,-1.2232,-1.2238,-1.2261,-1.2269,-1.217,-1.217,-1.217,0,-1.2113,-1.2132,-1.2111,-1.2129,-1.2133,-1.2101,-1.2126,-1.2125,-1.2125,-1.2129,-1.2111,-1.2133,-1.2129,-1.216,-1.2175,-1.2178,-1.2184,-1.2166,-1.2232,-1.2239,-1.2245,-1.2266,-1.2274,-1.2173,-1.2172,-1.2172,-1.2172,0,-1.2177,-1.2191,-1.2211,-1.2212,-1.2218,-1.2239,-1.2222,-1.223,-1.2215,-1.2206,-1.223,-1.2224,-1.2232,-1.2238,-1.2223,-1.2267,-1.2257,-1.2236,-1.2204,-1.2257,-1.2277,-1.2285,-1.2177,-1.2176,-1.2175,-1.2174,0,0,-1.2265,-1.2255,-1.2263,-1.2263,-1.2258,-1.2269,-1.2289,-1.2296,-1.2304,-1.2305,-1.2322,-1.2338,-1.2319,-1.2322,-1.2307,-1.2324,-1.2374,-1.2301,-1.2301,-1.2315,-1.2423,-1.2439,-1.2449,-1.2361,-1.2362,-1.2363,-1.2424,0,-1.2323,-1.2357,-1.2339,-1.2375,-1.2388,-1.2359,-1.2377,-1.2377,-1.2369,-1.2379,-1.237,-1.2383,-1.2356,-1.2357,-1.2373,-1.2365,-1.2395,-1.236,-1.2377,-1.2378,-1.2379,-1.2459,-1.2476,-1.2533,-1.2431,-1.2432,-1.2433,0,-1.2394,-1.2399,-1.2437,-1.2431,-1.2435,-1.2452,-1.2457,-1.2468,-1.2467,-1.246,-1.2463,-1.2445,-1.2465,-1.2434,-1.2461,-1.2438,-1.2444,-1.2441,-1.2442,-1.2444,-1.2409,-1.2463,-1.2551,-1.256,-1.2445,-1.2444,-1.2443,0,-1.2456,-1.2472,-1.2497,-1.2498,-1.2491,-1.2503,-1.2501,-1.2498,-1.2504,-1.2509,-1.2512,-1.252,-1.2524,-1.253,-1.2515,-1.2493,-1.2545,-1.2512,-1.254,-1.2541,-1.2553,-1.2552,-1.2644,-1.2556,-1.2556,-1.2556,-1.2556,0,-1.2522,-1.2547,-1.2524,-1.254,-1.2567,-1.2546,-1.2573,-1.2568,-1.2566,-1.258,-1.2556,-1.257,-1.2548,-1.256,-1.2548,-1.2574,-1.2575,-1.2571,-1.2568,-1.2573,-1.2574,-1.2577,-1.2573,-1.2558,-1.2557,-1.2557,-1.2557,0,-1.2595,-1.2581,-1.2606,-1.2598,-1.2596,-1.2617,-1.2609,-1.2624,-1.2615,-1.2633,-1.2636,-1.2622,-1.2635,-1.262,-1.2632,-1.2624,-1.2659,-1.2649,-1.2659,-1.2656,-1.2686,-1.2684,-1.2783,-1.2795,-1.2699,-1.27,-1.2701,0,-1.2639,-1.2657,-1.2651,-1.2659,-1.2658,-1.2671,-1.2676,-1.2657,-1.2665,-1.2665,-1.268,-1.2691,-1.2699,-1.2721,-1.2712,-1.2721,-1.2712,-1.2746,-1.2713,-1.2719,-1.2713,-1.2713,-1.2715,-1.2753,-1.2754,-1.2755,-1.2756,0,-1.2718,-1.271,-1.2719,-1.2727,-1.2735,-1.274,-1.2743,-1.2751,-1.2731,-1.274,-1.2754,-1.276,-1.2772,-1.2784,-1.2791,-1.2788,-1.277,-1.2766,-1.2774,-1.278,-1.2785,-1.2783,-1.2678,-1.2764,-1.2763,-1.2763,-1.2762,-1.2762,-1.2778,-1.2793,-1.2791,-1.2803,-1.2803,-1.2807,-1.282,-1.2813,-1.2824,-1.2832,-1.282,-1.2837,-1.2837,-1.2844,-1.2844,-1.2857,-1.2843,-1.2853,-1.2856,-1.2859,-1.2863,-1.2783,-1.2858,-1.2858,-1.2858,-1.2858,-1.2857,0,-1.2856,-1.2854,-1.2865,-1.287,-1.2879,-1.286,-1.2863,-1.2872,-1.2887,-1.2888,-1.2897,-1.2913,-1.2924,-1.2916,-1.2926,-1.2938,-1.293,-1.2942,-1.2941,-1.2941,-1.2875,-1.2869,-1.2948,-1.2948,-1.2948,-1.2948,-1.2948,-1.2948,-1.2898,-1.2923,-1.2915,-1.2941,-1.2938,-1.2955,-1.2958,-1.2962,-1.2962,-1.2981,-1.2991,-1.2985,-1.2983,-1.2993,-1.3003,-1.3,-1.3005,-1.3021,-1.3015,-1.2954,-1.2945,-1.2937,-1.293,-1.3022,-1.3022,-1.3079,-1.308,-1.308]},{"header":{"parameterUnit":"m.s-1","parameterCategory":1,"la1":30.2991,"la2":30.254,"lo1":-89.0895,"lo2":-89.0444,"dy":0.0017,"dx":0.0017,"nx":28,"ny":28,"refTime":"2026-02-10T03:00:00:Z","depth":0,"parameterNumber":3,"parameterNumberName":"V-component_of_WINDS"},"data":[0,0,0,0,0,0,0,0,0,0,0,0,0,0,0,0,0,0,0,0,0,0,0,0,0,0,0,0,0,0,0,0,0,0,0,0,0,0,0,0,0,0,0,0,0,0,0,0,0,0,0,0,0,0,0,0,0,0,0.1607,0.1606,0,0.1517,0.1516,0.1515,0.1535,0.1537,0.1539,0.154,0.1444,0.144,0.1436,0,0,0,0,0,0,0,0,0,0,0,0,0,0.1795,0.1791,0.1607,0.1606,0.1605,0.1517,0.1516,0.1515,0.1535,0.1537,0.1539,0.1541,0.1446,0.1441,0.1436,0,0,0,0,0,0,0,0,0,0,0,0,0,0.171,0.179,0.1607,0.1605,0.1604,0.1517,0.1516,0.1514,0.1535,0.1537,0.154,0.1542,0.1447,0.1441,0.1435,0.1345,0,0,0.1416,0.1413,0,0,0,0,0,0,0,0,0.1715,0.1703,0.1606,0.1605,0.1603,0.154,0.1547,0.1457,0.1534,0.1561,0.154,0.1543,0.1474,0.1466,0.1443,0.1341,0.1337,0.1416,0.1412,0.1409,0.1407,0,0,0,0,0,0,0,0.172,0.1707,0.1571,0.1605,0.1603,0.1607,0.1598,0.153,0.1504,0.1558,0.156,0.1549,0.1474,0.1449,0.1441,0.1335,0.1416,0.141,0.1406,0.1404,0.1156,0.1153,0,0,0,0,0,0,0.1728,0.1712,0.1574,0.1569,0.1667,0.1602,0.1591,0.1558,0.1505,0.1499,0.1547,0.155,0.1458,0.1448,0.1438,0.133,0.1409,0.1403,0.14,0.1159,0.1155,0.1152,0,0,0,0,0,0,0.1732,0.1716,0.1578,0.1641,0.1623,0.1596,0.1558,0.1555,0.153,0.1496,0.1491,0.1527,0.146,0.1446,0.1369,0.1326,0.14,0.1395,0.1162,0.1158,0.1154,0.1112,0,0,0,0,0,0,0.1737,0.1717,0.1683,0.164,0.162,0.1511,0.1555,0.1551,0.152,0.1523,0.1476,0.147,0.1461,0.1378,0.1362,0.1319,0.139,0.1166,0.116,0.1155,0.1117,0.1107,0.1099,0,0,0,0,0,0.1744,0.1674,0.1681,0.1664,0.1577,0.1509,0.1497,0.1489,0.1516,0.1481,0.146,0.1472,0.1334,0.137,0.1352,0.1307,0.1168,0.1162,0.1156,0.1122,0.1109,0.1099,0,0,0,0,0,0,0.1711,0.1668,0.1675,0.1589,0.1553,0.1512,0.1468,0.1476,0.143,0.1435,0.1425,0.1414,0.1335,0.1313,0.1354,0.1218,0.1255,0.1245,0.1235,0.1223,0.1214,0.122,0.1385,0,0,0,0,0,0.1694,0.1643,0.1608,0.1535,0.1516,0.1495,0.1465,0.1462,0.1423,0.1407,0.138,0.1341,0.1289,0.1255,0.1205,0.1115,0.1105,0.1075,0.1065,0.1058,0.1049,0.1,0.0987,0.1131,0.1131,0.1131,0,0,0.1657,0.1628,0.1596,0.1528,0.1499,0.1446,0.1482,0.1424,0.1384,0.1398,0.1324,0.1302,0.1258,0.1174,0.1136,0.1153,0.1007,0.105,0.1044,0.1039,0.0993,0.0979,0.0967,0.1127,0.1128,0.1128,0,0,0.1564,0.1536,0.1474,0.1445,0.1401,0.1388,0.1373,0.1331,0.1318,0.1244,0.1254,0.1206,0.1116,0.1085,0.1057,0.0954,0.0963,0.0938,0.0889,0.0841,0.083,0.082,0.0783,0.077,0.0929,0.0929,0.0929,0,0.1524,0.1445,0.144,0.1381,0.1351,0.1364,0.13,0.1271,0.1213,0.1192,0.1213,0.1102,0.1073,0.0982,0.0957,0.0934,0.0917,0.0943,0.0832,0.0822,0.0813,0.0778,0.0764,0.0927,0.0927,0.0927,0.0927,0,0.1398,0.1344,0.1298,0.1244,0.1208,0.1147,0.1132,0.1097,0.1098,0.1082,0.1006,0.0972,0.0917,0.0895,0.0894,0.0804,0.0817,0.0835,0.0872,0.0796,0.0763,0.075,0.0923,0.0924,0.0924,0.0925,0,0,0.128,0.1225,0.1208,0.1185,0.1139,0.1096,0.1035,0.0982,0.0953,0.0912,0.0862,0.0787,0.0804,0.0772,0.0768,0.0727,0.0648,0.0751,0.0749,0.0733,0.0548,0.0534,0.0519,0.0655,0.0652,0.065,0.0552,0,0.1183,0.1078,0.1072,0.0977,0.0926,0.0938,0.0886,0.0852,0.0836,0.079,0.0773,0.072,0.0747,0.0728,0.0687,0.0667,0.0611,0.0674,0.0607,0.0605,0.0617,0.0502,0.0486,0.0395,0.0539,0.0537,0.0535,0,0.1055,0.1013,0.0913,0.0876,0.0854,0.0807,0.0759,0.0716,0.0677,0.0669,0.0635,0.0637,0.0575,0.0615,0.0529,0.0572,0.0545,0.053,0.0527,0.052,0.0565,0.0491,0.0366,0.0352,0.0515,0.0516,0.0518,0,0.0979,0.0898,0.0828,0.0807,0.0761,0.0728,0.0707,0.0672,0.0641,0.0598,0.0578,0.0528,0.0501,0.0462,0.0451,0.0481,0.0366,0.0405,0.0357,0.0357,0.0331,0.0333,0.0199,0.0314,0.0314,0.0314,0.0314,0,0.0871,0.081,0.0794,0.075,0.0682,0.0676,0.0608,0.0589,0.0558,0.0511,0.0518,0.0473,0.0461,0.0415,0.0405,0.0336,0.0324,0.0315,0.0313,0.0314,0.0315,0.0295,0.0301,0.031,0.0311,0.0312,0.0313,0,0.0775,0.0762,0.0686,0.065,0.064,0.0591,0.0559,0.0518,0.0504,0.0445,0.043,0.0408,0.0353,0.0339,0.0273,0.0267,0.0186,0.019,0.0199,0.0199,0.0152,0.0157,0.0001,-0.002,0.0108,0.0107,0.0106,0,0.0707,0.066,0.0619,0.0589,0.0568,0.0519,0.0488,0.048,0.0447,0.0401,0.0365,0.0312,0.0269,0.0182,0.0159,0.0109,0.0112,0.0061,0.0105,0.0108,0.0112,0.0114,0.011,0.0053,0.0051,0.005,0.0049,0,0.0587,0.0583,0.0539,0.0492,0.0456,0.0418,0.0382,0.0357,0.0345,0.0307,0.0253,0.022,0.0154,0.0101,0.0051,0.0029,0.0037,0.0036,0.0022,0.0022,0.003,0.0026,0.0176,0.0039,0.004,0.0041,0.0042,0.0042,0.0502,0.0462,0.0428,0.0378,0.0351,0.0318,0.0278,0.026,0.0214,0.0161,0.0159,0.01,0.0064,-0.0002,-0.0027,-0.0073,-0.0058,-0.0078,-0.0083,-0.0088,-0.0092,0.0038,-0.0083,-0.0082,-0.0082,-0.0082,-0.0082,0,0.0384,0.0363,0.0317,0.0268,0.0229,0.0242,0.0203,0.017,0.0118,0.0084,0.0043,-0.002,-0.007,-0.0096,-0.0147,-0.0179,-0.0177,-0.0192,-0.019,-0.0195,-0.0103,-0.0086,-0.0193,-0.0193,-0.0193,-0.0193,-0.0193,-0.0193,0.0317,0.025,0.0242,0.0161,0.014,0.0083,0.006,0.003,0.0003,-0.0066,-0.0108,-0.0124,-0.0154,-0.0206,-0.0252,-0.0259,-0.0278,-0.0295,-0.0299,-0.0213,-0.0202,-0.0191,-0.0175,-0.0299,-0.0299,-0.0388,-0.0388,-0.0389]}]]